Погода в Могоче

Погода в Могоче : погода сейчас, прогноз погоды и архив. Всё, что Вы хотите узнать о погоде в Могоче!

Хотите узнать прогноз погоды в Могоче? Тогда Вам сюда: Погода в Могоче

Поиск расширенной информации на нашем сайте:

Другие новости

Новости СМИ2

Главная страница сайта

Новости сайта

03.07.2017

Напоминаем, что на нашем специализированном сайте Метеоцентр.Азия вы можете получить высокодетализированные автоматические прогнозы погоды по пунктам России, СНГ и мира в авиационном формате (включающие направление и скорость ветра, видимость, явления погоды, количество и форму облачности, нижнюю и верхнюю границу облачности).

Рекомендуем: предлагаются помещения продажа офиса в БЦ Eurasia Tower в деловом центре Москва Сити

Погода в Могоче - сегодня

Время (UTC), дата Ветер
(°,м/с) 
Видим.   Явления Облачность Т
(°С)
Тd
(°С)
f(%) Тe
(°С)
Pmin
(гПа)
dP
(гПа)
Po
(мм)
O2
(г/м3)
Тmin Tmax R s Состояние
почвы
09 15.10.18 340 (С) 20000 м    ясно 
+4.1 -11.2 32 +5  1027.4  0.1  714  284           
12 15.10.18 290 (З) 20000 м    ясно 
-0.9 -10.6 48 -3  1029.3  0.5  714  290    +6.4       
15 15.10.18 тихо ()   20000 м    ясно 
-8 -11.3 77 -8  1032  0.5  715  298           
18 15.10.18 тихо ()   20000 м    ясно 
-10.2 -12.5 83 -10  1032.7  0.1  715  300           
21 15.10.18 тихо ()   20000 м    ясно 
-12.1 -14.1 85 -12  1033.5  0.2  715  303           
03 16.10.18 130 (ЮВ) 20000 м    ясно 
+5.1 -9.3 34 +6  1027.3  -1.1  714  283           
06 16.10.18 300 (СЗ) 20000 м    3/0 верхняя 
[Ci fib]
+10.3 -14.3 16 +10  1023.8  -2  713  278           
09 16.10.18 190 (Ю) 20000 м    8/0 средняя, верхняя 
[Ac lent|Ci fib]
+4 -11.5 31 +5  1024.9  -0.5  712  284           
15 16.10.18 тихо ()   20000 м    8/0 верхняя 
[Ci fib]
-7.2 -10.8 75 -7  1028.6  0.1  712  296           
18 16.10.18 тихо ()   20000 м    8/0 верхняя 
[Ci fib]
-9.9 -12.2 83 -10  1029.1  -0.3  712  299           
21 16.10.18 тихо ()   20000 м    4/0 верхняя 
[Ci fib]
-10.8 -12.6 87 -11  1029.2  -0.2  712  300           
00 17.10.18 тихо ()   20000 м    8/0 верхняя 
[Ci fib]
-7.8 -11.7 74 -8  1028.3  712  296  -12         
03 17.10.18 120 (ЮВ) 20000 м    3/0 верхняя 
[Ci fib]
+3.1 -7.4 46 +4  1023.8  -1.1  711  284           
06 17.10.18 280 (З) 20000 м    ясно 
+11.3 -6.7 28 +12  1019.4  -2  710  275           
09 17.10.18 300 (СЗ) 20000 м    3/0 верхняя 
[Ci fib]
+7.3 -7.2 35 +7  1020.4  -0.1  710  279           
15 17.10.18 тихо ()   20000 м    ясно 
-5 -7.7 81 -5  1024.5  0.1  710  292           
18 17.10.18 тихо ()   20000 м    4/0 верхняя 
[Ci fib]
-6.6 -8.6 86 -7  1024.3  -0.6  710  294           
21 17.10.18 тихо ()   20000 м    6/0 верхняя 
[Ci fib]
-6.7 -8.5 87 -7  1023.9  -0.4  709  294           
00 18.10.18 тихо ()   20000 м    10/0 средняя, верхняя 
[Ac lent|Ci sp]
-3.9 -7 79 -4  1022.7  -0.3  709  290  -7.1         
03 18.10.18 тихо ()   20000 м    10/0 средняя, верхняя 
[Ac lent|Ci sp]
+5 -4.6 50 +5  1019.6  -0.3  709  281           
06 18.10.18 тихо ()   20000 м    8/0 средняя, верхняя 
[Ac lent|Ci]
+9.9 -4.5 36 +10  1016.7  -1.4  708  276           
09 18.10.18 270 (З) 20000 м    6/0 верхняя 
[Cs]
+7.4 -5.5 39 +7  1017.4  708  278           
15 18.10.18 310 (СЗ) 20000 м    4/0 верхняя 
[Cs]
-1.8 -5.8 74 -1  1023.4  1.6  710  288           
18 18.10.18 тихо ()   20000 м    6/0 верхняя 
[Cs]
-4.9 -7.1 85 -5  1025.2  0.7  711  292           
21 18.10.18 тихо ()   20000 м    4/0 верхняя 
[Cs]
-7.2 -8.7 89 -7  1026  0.1  711  295           
Время (UTC), дата Ветер
(°,м/с) 
Видим.   Явления Облачность Т
(°С)
Тd
(°С)
f(%) Тe
(°С)
Pmin
(гПа)
dP
(гПа)
Po
(мм)
O2
(г/м3)
Тmin Tmax R s Состояние
почвы

Для получения пояснительной информации подведите курсор к названию столбца.

ПОГОДА в Могоче - архив

Всё, что Вы хотите узнать о погоде в Могоче - удобно и подробно!

Выберите нужную дату (начиная с 1 января 2015* года) и нажмите кнопку "Найти".
Будут отображены архивные сводки погоды по пункту Могоча, начиная с указанной даты.


Отображать данные в формате CSV (для использования в таблицах Excel)


Внимание! Наш архив погоды предназначен исключительно для личного некоммерческого использования в познавательных целях. Если Вам необходимы официальные справки о состоянии погоды (для производственных, юридических, коммерческих и т.п. целей), обращайтесь в органы Росгидромета.

*Примечание: данная дата относится к архиву по метеостанциям СССР (Россия, СНГ, Балтия).
Архив по метеостанциям Зарубежной Европы и Азии (кроме Китая) хранится 10 дней, по другим регионам земного шара (Китай, Африка, Америка, Австралия, Океания) - 1 день.

Могоча - район местоположения метеостанции


Название, широта, долгота, высота метеостанции:
Могоча 53.8°ш. 119.7°д. 625 м над ур. моря [Российская Федерация]

Дополнительная информация

В oтличие oт бoльшинства пoгoдных сайтoв мы публикуем пoдрoбную метеoинфoрмацию в детальнoм прoфессиoнальнoм фoрмате.

Характеристики температуры и влажнoсти вoздуха измеряются на высoте 2 м в тени вдали oт зданий и деревьев.
Скoрoсть ветра измеряется на высoте 10 м (на урoвне рoста челoвека скoрoсть ветра ниже в 1.5-2 раза). Если метеoстанция нахoдится в гoрoде или в лесу, тo скoрoсть ветра занижена на 2-4 м/с пo сравнению с oткрытым местoм. Скoрoсть ветра над акватoриями крупных рек и oзёр, а также на вершинах хoлмoв на 2-5 м/с выше, чем в oбычных услoвиях.
Атмoсфернoе давление в разных тoчках местнoсти мoжет значительнo oтличаться oт давления на метеoстанции, в зависимoсти oт услoвий рельефа (при пoдъёме на 10 м давление пoнижается примернo на 1 мм рт.ст.).